User: anonymous   Login
Location: Unspecified
(0.0000°N, 0.0000°E)
Time: 23:59:07
(UTC+01:00)
Language:

ATLAS 2AS CENTAUR R/B - Orbit

View from above orbital plane
View from above orbital plane
View from above satellite
View from above satellite

Ground track
Ground track

The orbit data is extracted from the following two-line orbital elements,

1 28096U 03054B   14350.74476983 0.00000060  00000-0  89848-4 0    08
2 28096  63.6690 206.5143 0255000 291.7277  68.2723 13.40763076    00
Epoch (UTC): 16 December 2014 17:52:28
Eccentricity: 0.0255000
inclination: 63.6690°
perigee height: 915 km
apogee height: 1297 km
right ascension of ascending node: 206.5143°
argument of perigee: 291.7277°
revolutions per day: 13.40763076
mean anomaly at epoch: 68.2723°
orbit number at epoch: 0

The dashed part of the orbit path shows where the satellite is in the earth's shadow,  

DLR